Barcelona, Spain

5:02 AM CET on November 22, 2017 (GMT +0100)
El Prat

Weather History for LEBL - February, 2013

Change the Weather History Date:

Saturday, February 2, 2013

  Actual Average Record
Temperature  
Mean Temperature 56 °F -  
Max Temperature 60 °F 55 °F 62 °F (2000)
Min Temperature 50 °F 41 °F 33 °F (1999)
Degree Days  
Heating Degree Days 10    
Growing Degree Days 6 (Base 50)    
Moisture  
Dew Point 34 °F    
Average Humidity 43    
Maximum Humidity 67    
Minimum Humidity 23    
Precipitation  
Precipitation 0.00 in 0.05 in - ()
Sea Level Pressure  
Sea Level Pressure 29.66 in    
Wind  
Wind Speed 14 mph ()    
Max Wind Speed 28 mph    
Max Gust Speed 43 mph    
Visibility 7.3 miles    
Events      
Averages and records for this station are not official NWS values.
T = Trace of Precipitation, MM = Missing Value Source: Averaged Metar Reports

Daily Weather History Graph

Daily Weather History Graph

Search for Another Location

Airport or City:

Trip Planner

Search our weather history database for the weather conditions in past years. The results will help you decide how hot, cold, wet, or windy it might be!

Date:

Astronomy

Feb. 02, 2013 Rise Set
Actual Time 8:01 AM CET 6:09 PM CET
Civil Twilight 7:32 AM CET 6:38 PM CET
Nautical Twilight 6:59 AM CET 7:11 PM CET
Astronomical Twilight 6:27 AM CET 7:44 PM CET
Moon 12:03 AM CET (2/2) 10:57 AM CET (2/2)
Length of Visible Light 11h 05m
Length of Day
10h 07m
Waning Gibbous, 62% of the Moon is Illuminated
Feb 2
Waning Gibbous
Feb 3
Last Quarter
Feb 10
New
Feb 17
First Quarter
Feb 25
Full

Hourly Weather History & Observations

Time (CET) Temp. Dew Point Humidity Pressure Visibility Wind Dir Wind Speed Gust Speed Precip Events Conditions
12:00 AM 59.0 °F 48.2 °F 67% 29.68 in 6.2 mi SSW 8.1 mph - N/A   Partly Cloudy
12:30 AM 59.0 °F 46.4 °F 63% 29.68 in 6.2 mi SW 6.9 mph - N/A   Partly Cloudy
1:00 AM 60 °F 44 °F 45% 29.68 in 19 mi SW 8.1 mph - -   Scattered Clouds
1:00 AM 60.8 °F 44.6 °F 55% 29.68 in 6.2 mi SW 9.2 mph - N/A   Partly Cloudy
1:30 AM 64.4 °F 41.0 °F 42% 29.65 in 6.2 mi West 18.4 mph - N/A   Partly Cloudy
2:00 AM 62.6 °F 41.0 °F 45% 29.62 in 6.2 mi West 12.7 mph 24.2 mph N/A   Partly Cloudy
2:30 AM 62.6 °F 42.8 °F 48% 29.62 in 6.2 mi West 11.5 mph - N/A   Partly Cloudy
3:00 AM 60.8 °F 42.8 °F 52% 29.59 in 6.2 mi West 15.0 mph - N/A   Scattered Clouds
3:30 AM 59.0 °F 44.6 °F 59% 29.56 in 6.2 mi West 19.6 mph - N/A   Partly Cloudy
4:00 AM 59.0 °F 44.6 °F 59% 29.53 in 6.2 mi West 16.1 mph - N/A   Scattered Clouds
4:30 AM 59.0 °F 42.8 °F 55% 29.53 in 6.2 mi West 16.1 mph 27.6 mph N/A   Scattered Clouds
5:00 AM 59.0 °F 42.8 °F 55% 29.53 in 6.2 mi West 17.3 mph 31.1 mph N/A   Partly Cloudy
5:30 AM 57.2 °F 42.8 °F 59% 29.53 in 6.2 mi WNW 10.4 mph - N/A   Partly Cloudy
6:00 AM 57.2 °F 41.0 °F 55% 29.53 in 6.2 mi NW 10.4 mph - N/A   Partly Cloudy
6:30 AM 57.2 °F 41.0 °F 55% 29.53 in 6.2 mi WNW 15.0 mph - N/A   Partly Cloudy
7:00 AM 55 °F 39 °F 43% 29.55 in 19 mi WNW 20.7 mph - -   Scattered Clouds
7:00 AM 55.4 °F 41.0 °F 58% 29.53 in 6.2 mi WNW 15.0 mph - N/A   Partly Cloudy
7:30 AM 55.4 °F 39.2 °F 54% 29.53 in 6.2 mi NW 19.6 mph - N/A   Partly Cloudy
8:00 AM 55.4 °F 37.4 °F 51% 29.53 in 6.2 mi NW 19.6 mph - N/A   Partly Cloudy
8:30 AM 55.4 °F 30.2 °F 38% 29.56 in 6.2 mi NW 21.9 mph - N/A   Partly Cloudy
9:00 AM 55.4 °F 33.8 °F 44% 29.59 in 6.2 mi NNW 18.4 mph - N/A   Partly Cloudy
9:30 AM 55.4 °F 33.8 °F 44% 29.59 in 6.2 mi NNW 18.4 mph - N/A   Partly Cloudy
10:00 AM 55.4 °F 35.6 °F 47% 29.62 in 6.2 mi North 11.5 mph - N/A   Partly Cloudy
10:30 AM 53.6 °F 33.8 °F 47% 29.65 in 6.2 mi NW 17.3 mph - N/A   Partly Cloudy
11:00 AM 53.6 °F 32.0 °F 44% 29.65 in 6.2 mi NW 16.1 mph 31.1 mph N/A   Partly Cloudy
11:30 AM 57.2 °F 30.2 °F 36% 29.65 in 6.2 mi NW 16.1 mph - N/A   Partly Cloudy
12:00 PM 55.4 °F 30.2 °F 38% 29.65 in 6.2 mi NW 18.4 mph - N/A   Partly Cloudy
12:30 PM 55.4 °F 32.0 °F 41% 29.65 in 6.2 mi WNW 24.2 mph - N/A   Partly Cloudy
1:00 PM 57 °F 29 °F 23% 29.66 in 19 mi WNW 25.3 mph - -   Scattered Clouds
1:00 PM 57.2 °F 30.2 °F 36% 29.65 in 6.2 mi WNW 25.3 mph - N/A   Partly Cloudy
1:30 PM 57.2 °F 32.0 °F 38% 29.65 in 6.2 mi WNW 25.3 mph - N/A   Partly Cloudy
2:00 PM 59.0 °F 32.0 °F 36% 29.65 in 6.2 mi NW 25.3 mph - N/A   Partly Cloudy
2:30 PM 59.0 °F 32.0 °F 36% 29.65 in 6.2 mi WNW 23.0 mph - N/A   Partly Cloudy
3:00 PM 59.0 °F 32.0 °F 36% 29.65 in 6.2 mi NW 24.2 mph 35.7 mph N/A   Partly Cloudy
3:30 PM 57.2 °F 30.2 °F 36% 29.65 in 6.2 mi WNW 26.5 mph 42.6 mph N/A   Partly Cloudy
4:00 PM 57.2 °F 32.0 °F 38% 29.68 in 6.2 mi WNW 18.4 mph - N/A   Partly Cloudy
4:30 PM 57.2 °F 30.2 °F 36% 29.68 in 6.2 mi WNW 27.6 mph - N/A   Partly Cloudy
5:00 PM 59.0 °F 30.2 °F 34% 29.68 in 6.2 mi WNW 21.9 mph - N/A   Partly Cloudy
5:30 PM 57.2 °F 30.2 °F 36% 29.71 in 6.2 mi WNW 24.2 mph - N/A   Partly Cloudy
6:00 PM 57.2 °F 28.4 °F 33% 29.71 in 6.2 mi West 17.3 mph - N/A   Partly Cloudy
6:30 PM 57.2 °F 24.8 °F 29% 29.74 in 6.2 mi NW 19.6 mph 33.4 mph N/A   Partly Cloudy
7:00 PM 53 °F 28 °F 26% 29.78 in 19 mi WNW 17.3 mph - -   Scattered Clouds
7:00 PM 53.6 °F 28.4 °F 38% 29.77 in 6.2 mi WNW 16.1 mph - N/A   Partly Cloudy
7:30 PM 53.6 °F 28.4 °F 38% 29.77 in 6.2 mi NW 18.4 mph - N/A   Partly Cloudy
8:00 PM 51.8 °F 28.4 °F 41% 29.80 in 6.2 mi NW 15.0 mph - N/A   Partly Cloudy
8:30 PM 51.8 °F 28.4 °F 41% 29.80 in 6.2 mi NW 18.4 mph 31.1 mph N/A   Partly Cloudy
9:00 PM 51.8 °F 26.6 °F 38% 29.80 in - NW 17.3 mph 28.8 mph N/A   Clear
9:30 PM 51.8 °F 24.8 °F 35% 29.83 in - NW 6.9 mph - N/A   Clear
10:00 PM 51.8 °F 24.8 °F 35% 29.83 in - NW 9.2 mph - N/A   Clear
10:30 PM 51.8 °F 23.0 °F 33% 29.86 in - NW 3.5 mph - N/A   Clear
11:00 PM 51.8 °F 23.0 °F 33% 29.86 in - NNW 4.6 mph - N/A   Clear
11:30 PM 50.0 °F 23.0 °F 35% 29.86 in - WNW 8.1 mph - N/A   Clear